Regional Weather Roundup
Issued by NWS

Home | Current Version | Previous Version | Graphics & Text | Print | Product List | Glossary On
Versions: 1 2 3 4 5 6 7 8 9 10 11 12 13 14 15 16 17 18 19 20 21 22 23 24 25 26 27 28 29 30 31 32 33 34 35 36 37 38 39 40 41 42 43 44
000
ASUS43 KDMX 242207
RWRIA

WEATHER ROUNDUP FOR IOWA
NATIONAL WEATHER SERVICE DES MOINES IA
400 PM CST WED DEC 24 2014

NOTE: "FAIR" INDICATES FEW OR NO CLOUDS BELOW 12,000 FEET WITH NO
SIGNIFICANT WEATHER AND/OR OBSTRUCTIONS TO VISIBILITY.

* - THESE STATIONS ARE NOT NWS STATIONS...THUS NOT UNDER NWS
QUALITY CONTROL.  THEY ALSO DO NOT REPORT WEATHER SUCH
AS PRECIPITATION OR FOG.

IAZ001>003-012>014-020>022-031>034-043>046-242300-
   NORTHWEST IOWA

CITY           SKY/WX    TMP DP  RH WIND       PRES   REMARKS
CARROLL *      CLOUDY    30  28  93 NW8       29.73R WCI  23
CHEROKEE *     CLOUDY    28  28 100 W6        29.72F FOG     WCI  22
DENISON *      CLOUDY    28  28 100 W12       29.73R FOG     WCI  18
LE MARS *      CLOUDY    28  27  93 W9        29.73F WCI  20
ORANGE CITY *  FOG       27  27 100 W8        29.70F VSB 1   WCI  18
SHELDON *      CLOUDY    27  27 100 W10       29.69F FOG     WCI  17
SIOUX CITY     CLOUDY    29  25  85 SW5       29.74F WCI  24
SPENCER        CLOUDY    30  26  85 W8        29.70S WCI  22
STORM LAKE *   CLOUDY    28  28 100 W14       29.72R FOG     WCI  17
$$

IAZ055>058-069>071-079>083-090>094-242300-
   SOUTHWEST IOWA

CITY           SKY/WX    TMP DP  RH WIND       PRES   REMARKS
ATLANTIC *     CLOUDY    30  30 100 W7        29.74F WCI  23
AUDUBON *      CLOUDY    30  25  80 NW7       29.74S WCI  23
CLARINDA *     CLOUDY    32  30  93 W7        29.79F WCI  26
COUNCIL BLFS * CLOUDY    28  28 100 W7        29.75S WCI  21
CRESTON *      LGT SNOW  32  32 100 W15       29.74S WCI  22
HARLAN  *      CLOUDY    30  30 100 W9        29.78S WCI  22
LAMONI         CLOUDY    34  31  88 W15       29.74R WCI  24
RED OAK *      CLOUDY    32  30  93 W8        29.77F FOG     WCI  25
SHENANDOAH *   CLOUDY    32  30  93 W6        29.80S WCI  26
$$

IAZ047>049-059>061-072>074-084-242300-
   CENTRAL IOWA

CITY           SKY/WX    TMP DP  RH WIND       PRES   REMARKS
AMES           CLOUDY    34  29  82 NW14      29.71R WCI  25
ANKENY *       CLOUDY    34  32  93 NW12G18   29.72R WCI  25
CHARITON *     CLOUDY    34  32  93 NW13      29.72R WCI  25
DES MOINES     CLOUDY    35  30  82 NW13      29.72R WCI  26
GRINNELL*      CLOUDY    34  32  93 W18       29.69R WCI  23
KNOXVILLE *    CLOUDY    34  30  86 NW14G20   29.70R WCI  24
MARSHALLTOWN   CLOUDY    33  31  92 NW16      29.67R WCI  23
PELLA *        CLOUDY    36  32  87 NW14G20   29.71S WCI  27
PERRY *        CLOUDY    34  32  93 NW9       29.73R WCI  26
$$

IAZ004>006-015-016-023>025-035-036-242300-
   NORTH CENTRAL IOWA

CITY           SKY/WX    TMP DP  RH WIND       PRES   REMARKS
ALGONA *       CLOUDY    32  32 100 NW7       29.69F WCI  26
CLARION *      CLOUDY    32  32 100 NW15      29.69S WCI  22
ESTHERVILLE    CLOUDY    31  28  89 W12       29.68S WCI  22
FORT DODGE *   CLOUDY    32  27  80 W6        29.72R WCI  26
MASON CITY     CLOUDY    33  29  85 W14       29.68R WCI  23
FOREST CITY *  CLOUDY    32  30  93 NW10      29.67S WCI  24
IOWA FALLS *   CLOUDY    32  30  93 W15       29.69S WCI  22
$$

IAZ007>011-017>019-026>030-037>042-050>054-066-242300-
   NORTHEAST IOWA

CITY           SKY/WX    TMP DP  RH WIND       PRES   REMARKS
CEDAR RAPIDS   CLOUDY    35  33  92 NW18      29.62R WCI  24
CHARLES CITY * CLOUDY    34  34 100 NW14G20   29.65R WCI  24
CLINTON *      CLOUDY    36  30  80 NW14      29.61R WCI  27
DECORAH *      CLOUDY    34  32  93 NW10G21   29.59R WCI  26
DUBUQUE        CLOUDY    34  31  88 NW14      29.57R WCI  25
MONTICELLO *   CLOUDY    37  34  87 NW10      29.60R WCI  30
OELWEIN *      CLOUDY    36  32  87 NW17      29.63R WCI  25
WATERLOO       LGT RAIN  35  32  88 W14       29.64R WCI  26
$$

IAZ064-065-067-068-078-242300-
   EAST CENTRAL IOWA

CITY           SKY/WX    TMP DP  RH WIND       PRES   REMARKS
DAVENPORT      CLOUDY    36  31  82 NW15      29.60R WCI  27
IOWA CITY      CLOUDY    37  32  82 W15       29.65R WCI  28
MT. PLEASANT * CLOUDY    36  32  87 W12       29.66S WCI  27
MUSCATINE *    CLOUDY    37  32  81 NW17      29.64R WCI  28
QUAD CITIES    CLOUDY    37  31  78 W14       29.60R WCI  28
$$

IAZ062-063-075>077-085>089-095>099-242300-
   SOUTHEAST IOWA

CITY           SKY/WX    TMP DP  RH WIND       PRES   REMARKS
BURLINGTON     CLOUDY    37  33  85 NW15G22   29.64R WCI  28
FAIRFIELD *    CLOUDY    37  32  81 NW13G18   29.67S WCI  29
FORT MADISON * CLOUDY    39  36  87 W17       29.66R WCI  30
KEOKUK *       CLOUDY    37  34  87 W14G22    29.66R WCI  29
OSKALOOSA *    CLOUDY    36  32  87 NW20      29.68S WCI  25
CENTERVILLE *  CLOUDY    34  34 100 W10       29.72R WCI  26
OTTUMWA        CLOUDY    36  31  82 NW14      29.68S WCI  27
WASHINGTON *   CLOUDY    37  36  93 NW14G24   29.66R WCI  29
$$

ABBREVIATIONS USED IN REMARKS
   TC - TEMPERATURES IN CELSIUS
  WCI - WIND CHILL INDEX
   HX - HEAT INDEX
  VSB - VISIBILITY
$$




USA.gov is the U.S. government's official web portal to all federal, state and local government web resources and services.